Location: Wellington
(40.7039°N, 105.0086°W)
Time: 19:39:16
(UTC+00:00)

Daily predictions for brighter satellites

Satellite Brightness Start Highest point End
(mag) Time Altitude Azimuth Time Altitude Azimuth Time Altitude Azimuth
Aureole 3 Rocket 4.2 12:00:24 10° N 12:06:20 79° W 12:14:32 10° S
Cosmos 968 Rocket 3.5 12:02:43 14° NNW 12:07:22 83° ENE 12:12:36 10° SSE
ATLAS 3B R/B 3.0 12:03:10 24° WSW 12:07:53 55° NW 12:15:37 10° NNE
In-Cosmos 22 Rocket 4.3 12:04:24 10° SSW 12:10:06 56° WNW 12:15:48 10° N
Cosmos 2242 Rocket 4.1 12:11:37 37° NW 12:11:37 37° NW 12:15:05 10° N
Helios 1A Rocket 3.1 12:08:19 10° SSE 12:11:35 54° ENE 12:14:49 10° N
COSMO-SKYMED 1 3.1 12:10:47 10° SSE 12:14:47 55° ENE 12:18:50 10° N
IRS-1D 3.3 12:13:28 10° N 12:18:22 70° WNW 12:23:16 10° SSW
CZ-3 R/B 3.3 12:07:28 14° WSW 12:19:41 38° SSW 12:25:23 10° SE
Cosmos 1812 4.4 12:22:44 12° SSW 12:22:44 12° SSW 12:23:01 10° SSW
SJ 16-02 3.0 12:22:31 17° SW 12:22:31 17° SW 12:24:03 10° SSW
Meteor 1-21 Rocket 4.4 12:18:45 10° SSW 12:24:18 50° WNW 12:29:45 10° N
CZ-2C R/B 4.2 12:21:04 10° NNW 12:22:41 16° NNW 12:22:41 16° NNW
SL-16 R/B 3.0 12:24:24 26° W 12:25:51 29° NW 12:30:44 10° N
Cosmos 1741 Rocket 4.0 12:21:54 10° NNW 12:27:14 89° W 12:32:32 10° SSE
Cosmos 1110 Rocket 4.2 12:23:04 10° SW 12:28:09 47° WNW 12:33:17 10° N
Cosmos 1302 Rocket 4.2 12:26:07 10° S 12:31:15 74° ESE 12:36:26 10° NNE
USA 234 3.5 12:27:33 10° ESE 12:34:02 67° NE 12:40:18 11° NW
Cosmos 1441 Rocket 3.7 12:33:48 10° S 12:37:03 52° E 12:40:18 10° NNE
Cosmos 1025 Rocket 3.0 12:37:31 10° SSW 12:41:49 59° W 12:46:08 10° N
BREEZE-M DEB (TANK) 4.5 12:47:00 10° SSW 12:48:56 23° SE 12:51:19 10° ENE
Okean 2 Rocket 3.1 12:45:46 10° NNW 12:50:02 54° W 12:54:18 10° S
Cosmos 1400 Rocket 3.4 12:47:14 12° NW 12:50:02 29° W 12:53:13 10° SSW
SKYMED 2 4.1 12:47:27 10° SSW 12:51:30 38° W 12:55:33 10° NNW
Cosmos 2084 3.4 12:51:26 10° NNW 12:55:28 77° NE 12:59:27 10° SE
Cosmos 1674 Rocket 4.4 12:54:35 10° SW 12:58:24 28° WNW 13:02:13 10° NNW
Cosmos 1818 3.7 12:55:34 10° SW 13:00:52 56° NW 13:06:14 10° NNE
Cosmos 1464 Rocket 4.2 12:56:10 10° NNW 13:02:01 48° W 13:07:51 10° SSW
H-2A R/B 4.4 13:01:44 10° SSW 13:04:14 16° SSE 13:09:10 10° SE
Cosmos 1452 Rocket 4.2 13:01:15 10° WSW 13:05:50 30° WNW 13:10:25 10° N
Cosmos 332 Rocket 4.4 13:05:47 10° NW 13:10:07 35° WSW 13:14:23 10° SSW
Meteor 2-1 Rocket 4.4 13:04:50 10° NNW 13:10:33 56° W 13:16:06 10° S
Cosmos 1943 3.8 13:07:46 10° WSW 13:12:45 32° WNW 13:17:47 10° N
Cosmos 2369 Rocket 3.3 13:09:25 10° NW 13:13:56 25° WSW 13:18:27 10° SSW
ARIANE 5 R/B 3.6 13:10:03 10° NNE 13:15:02 50° E 13:20:02 10° S
Cosmos 2034 Rocket 4.1 13:09:48 10° NNW 13:16:02 59° W 13:22:15 10° S
Cosmos 1603 3.8 13:14:07 10° SW 13:19:45 57° WNW 13:25:24 10° NNE
Cosmos 1455 Rocket 3.0 13:15:30 10° NNW 13:19:49 68° W 13:24:09 10° S
Meteor 1-27 4.4 13:17:10 10° N 13:22:58 88° ENE 13:28:40 10° S
